Wind_Speed
32 31 32 32 29 27 27 28 27 26 26 24 23 22 20 18 16 15 14 13 12 12 12 12 11 10 10 10 9 9 9 9 9 9 9 10 9 9 8 8 7 7 6
34 34 33 33 32 30 29 29 28 27 26 26 25 23 22 20 19 18 16 15 14 14 13 13 13 12 12 11 11 10 10 9 9 10 10 10 10 9 9 8 8 7 7
32 32 33 33 33 33 32 31 29 28 28 27 26 25 24 22 21 20 19 18 16 16 15 15 14 14 13 13 12 12 11 10 10 11 11 11 11 10 10 9 9 8 8
31 32 31 32 32 33 33 33 31 30 30 29 29 27 25 24 23 22 21 20 19 18 17 17 16 16 15 14 14 13 12 11 11 12 12 12 11 11 10 10 10 9 9
30 31 32 33 32 32 33 34 32 32 32 31 30 29 28 26 25 25 24 23 22 21 20 19 18 18 17 16 15 15 14 13 12 12 12 13 12 12 11 11 11 10 10
28 29 30 32 32 32 33 33 34 34 33 33 32 30 30 29 28 27 27 26 24 23 23 22 21 20 19 18 17 17 16 15 14 14 13 13 13 13 12 12 12 12 11
26 27 29 30 32 32 33 33 33 34 34 34 33 32 31 31 30 29 29 27 27 26 25 24 23 22 22 21 20 19 18 18 17 16 15 14 14 14 14 13 13 13 13
23 25 27 28 30 31 33 33 34 35 34 34 34 34 31 31 30 30 30 30 29 28 28 26 26 24 24 23 22 22 21 20 20 19 18 17 16 16 15 15 15 15 14
20 22 24 26 28 30 31 33 34 35 35 35 34 34 33 33 31 31 31 32 31 31 31 29 28 27 26 25 24 24 23 22 22 21 21 19 19 18 18 17 17 17 16
17 19 22 24 26 28 30 32 34 35 35 35 36 36 35 34 33 31 31 32 33 32 32 32 30 30 29 27 26 26 26 25 24 23 23 22 21 20 19 19 19 19 18
15 17 19 21 24 26 28 30 32 34 35 35 36 37 37 37 35 34 33 32 32 33 33 33 33 31 30 29 29 28 28 27 26 26 25 24 23 22 22 21 21 21 21
14 15 17 19 22 24 26 28 30 32 33 34 35 36 37 37 37 37 36 35 34 34 34 35 35 34 33 31 30 31 30 29 29 28 27 27 26 25 24 24 24 23 23
13 14 15 17 19 21 23 26 28 30 31 32 33 35 36 38 38 38 39 37 36 35 35 36 35 34 35 34 33 32 33 32 31 31 30 29 28 27 27 27 26 26 26
14 14 14 15 17 18 21 23 25 27 29 31 32 34 35 36 37 38 39 39 38 36 35 35 35 35 35 35 35 34 34 34 34 33 32 32 31 30 30 29 29 28 28
15 14 14 14 15 17 18 20 22 24 26 28 30 32 33 35 35 37 38 39 40 39 37 36 35 35 35 36 36 36 36 36 35 34 34 34 33 32 32 31 31 31 30
15 15 14 13 13 15 16 18 19 21 24 26 28 29 31 32 33 34 36 37 38 38 37 36 35 36 36 35 37 37 37 35 35 35 35 35 34 34 34 33 33 33 33
17 16 15 13 12 12 13 14 16 18 20 23 25 27 28 31 32 33 34 36 36 36 35 35 35 35 35 35 35 37 38 37 36 37 36 35 35 35 35 35 35 35 35
19 17 16 14 13 12 11 12 13 15 17 19 21 23 25 27 29 31 32 34 35 36 36 36 36 36 35 35 36 37 38 38 37 37 37 36 36 36 36 36 36 35 35
22 20 18 16 14 12 11 10 10 12 14 15 17 19 22 24 26 29 30 31 33 35 36 36 37 36 36 35 35 37 38 39 39 38 38 38 37 37 37 36 36 35 36
23 22 20 18 16 14 11 10 9 9 10 12 14 15 17 20 23 26 28 29 31 33 34 35 36 36 36 36 36 36 37 37 38 38 38 38 37 38 38 37 37 36 36
24 23 22 20 18 16 14 12 11 10 9 9 10 11 13 16 19 22 25 27 28 30 31 32 33 35 35 36 36 36 36 37 37 37 37 37 37 37 37 37 37 37 37
24 23 23 22 20 19 17 15 13 12 9 8 7 8 9 12 15 17 20 22 25 26 27 28 30 32 33 33 34 34 35 36 36 35 36 36 36 37 36 36 36 36 36
24 23 23 23 22 21 20 18 16 14 12 9 6 6 7 9 11 13 16 18 21 23 25 26 27 28 30 31 31 32 33 34 34 33 34 35 36 35 35 36 36 35 35
23 23 22 23 23 22 21 20 18 16 14 11 8 6 6 6 8 9 12 15 16 19 21 23 24 25 26 28 30 29 30 31 33 33 34 35 34 33 33 34 36 36 35
22 22 22 22 22 22 22 21 20 18 17 14 11 8 6 6 6 7 9 12 15 17 19 21 22 23 24 25 27 28 29 29 31 33 33 33 34 33 33 32 32 32 32
20 21 21 21 21 21 22 22 21 20 19 17 14 11 8 6 5 6 8 10 12 15 16 18 19 21 21 23 24 25 26 27 28 29 30 31 32 32 31 30 29 29 29
Wind_Direction
259 254 252 250 252 252 248 243 241 241 239 238 237 237 237 238 236 232 234 230 226 223 221 219 215 209 206 206 205 201 198 197 197 196 195 190 187 187 190 193 193 197 200
259 257 255 252 251 252 251 248 245 243 241 239 238 238 236 237 236 233 233 231 227 225 224 222 217 214 212 211 210 208 205 205 205 202 198 196 197 198 202 205 209 212 216
257 256 253 253 252 252 253 253 249 246 243 242 240 238 238 237 236 234 232 232 229 227 227 223 220 219 217 215 214 212 210 210 208 204 201 201 204 209 213 216 220 224 228
258 255 254 253 253 253 251 251 250 249 247 246 242 241 241 241 238 235 231 232 231 229 227 225 223 222 221 219 217 215 214 213 214 211 207 209 212 217 220 222 225 230 233
260 257 255 254 252 251 251 250 249 248 250 249 245 243 242 243 242 237 233 232 231 230 228 227 226 225 225 224 222 219 218 217 217 216 214 216 219 222 225 227 230 234 237
261 258 255 254 253 251 250 249 247 248 249 249 248 247 245 244 244 240 237 235 233 231 228 229 228 227 227 227 226 225 222 220 220 219 220 222 225 226 229 232 235 239 243
262 259 255 252 252 251 249 248 247 247 248 248 249 249 246 245 243 240 238 236 233 231 229 230 230 228 229 229 229 228 227 225 225 225 225 227 230 231 234 237 240 244 248
265 260 257 254 252 250 248 246 247 246 245 246 247 246 245 245 242 240 239 238 234 233 230 229 230 230 231 231 231 231 231 231 230 230 230 231 233 235 238 241 244 247 251
272 264 259 256 253 251 248 246 246 245 244 244 244 244 246 246 242 241 241 239 236 235 232 229 230 231 232 233 233 233 234 234 234 234 235 236 237 239 242 245 247 250 253
279 270 263 258 255 253 250 248 247 245 245 244 243 244 245 245 244 241 239 238 237 235 233 230 231 232 233 234 235 235 235 235 236 237 238 239 240 242 245 247 250 252 255
286 278 269 262 258 256 254 252 250 247 246 246 245 245 244 244 244 243 241 238 238 236 233 232 232 233 233 233 235 238 236 237 238 239 240 241 242 244 247 250 252 255 257
295 287 277 269 264 261 258 255 252 250 248 247 247 246 245 245 245 243 242 240 239 238 236 235 234 235 235 235 236 238 238 238 239 240 242 243 245 246 249 252 254 257 260
307 297 287 278 271 265 261 257 254 252 250 249 248 248 246 245 244 244 242 240 240 238 237 237 236 237 237 237 236 237 239 240 241 242 243 244 245 248 251 253 255 258 260
319 309 299 288 280 272 265 260 256 254 252 250 250 248 247 246 244 243 242 241 240 239 238 238 238 238 238 237 236 238 241 243 242 243 244 245 247 250 252 254 255 257 260
332 321 310 298 288 279 272 265 260 257 254 251 249 248 248 245 244 243 243 242 241 241 240 238 238 238 238 238 238 240 241 242 243 244 245 246 248 251 253 255 256 257 259
344 337 327 316 304 290 279 270 264 260 257 254 251 248 246 244 243 242 242 242 241 241 241 239 239 239 238 240 240 239 241 242 244 245 246 247 249 251 253 255 256 257 260
355 348 342 333 322 310 293 279 271 264 260 256 253 250 247 244 242 242 242 241 241 241 242 240 239 239 241 242 241 240 240 242 244 245 247 248 250 252 253 255 257 259 261
4 360 354 347 337 327 311 295 283 274 267 262 257 253 249 245 243 241 240 240 241 241 243 243 243 244 244 243 242 241 243 243 243 245 247 248 251 252 254 256 258 259 261
11 9 7 2 355 347 334 318 300 286 277 271 263 256 250 245 243 240 240 240 240 240 241 242 243 244 244 245 245 244 244 244 245 245 246 248 250 252 254 256 258 259 260
18 18 15 13 9 4 357 345 330 308 290 279 271 264 254 245 242 240 239 239 240 241 241 242 243 243 243 244 246 247 245 244 244 244 246 248 250 251 253 255 257 259 260
21 21 20 19 17 14 9 359 349 337 318 296 280 269 258 248 245 241 239 238 240 241 242 242 243 243 246 247 248 249 248 246 245 246 246 247 249 250 252 254 257 259 259
20 21 22 22 21 20 18 14 9 360 346 326 302 282 266 253 247 242 237 236 238 239 241 242 243 244 247 247 248 249 248 247 247 247 247 249 250 250 251 254 255 257 258
19 20 21 22 22 21 20 18 15 12 4 352 329 301 279 264 252 243 240 239 239 239 240 241 242 244 247 247 247 247 248 248 247 247 247 249 251 252 253 254 255 256 257
16 17 19 19 19 19 19 18 16 14 12 5 350 325 301 282 262 248 243 243 244 243 241 239 240 243 245 247 247 248 249 248 249 249 249 249 251 252 253 256 256 257 256
11 13 15 16 17 18 19 18 17 15 14 11 6 351 324 300 273 258 254 250 246 243 241 241 242 244 245 245 248 251 250 249 250 250 249 250 251 253 253 255 257 255 253
5 7 9 11 13 14 16 16 16 16 15 14 12 5 353 330 297 272 267 265 252 244 242 241 241 243 245 247 248 249 249 249 251 250 250 250 250 251 251 252 253 253 254
Height
5841 5842 5845 5847 5849 5851 5853 5856 5858 5860 5863 5865 5867 5869 5871 5873 5875 5877 5878 5879 5881 5882 5883 5885 5886 5888 5889 5891 5892 5894 5895 5896 5898 5899 5901 5902 5904 5905 5906 5908 5909 5910 5911
5833 5835 5837 5840 5843 5845 5847 5849 5851 5855 5857 5859 5862 5864 5866 5868 5871 5873 5875 5876 5878 5880 5881 5883 5885 5886 5888 5889 5891 5892 5894 5895 5896 5898 5899 5901 5903 5904 5906 5907 5908 5909 5910
5825 5827 5830 5832 5835 5838 5840 5843 5845 5848 5851 5854 5856 5859 5861 5864 5867 5869 5871 5873 5875 5877 5879 5881 5883 5884 5886 5888 5889 5891 5892 5894 5895 5897 5898 5900 5902 5903 5904 5906 5907 5908 5909
5817 5819 5822 5825 5827 5830 5833 5836 5839 5842 5845 5848 5851 5854 5856 5859 5862 5865 5867 5869 5872 5874 5876 5878 5880 5882 5884 5886 5887 5889 5891 5892 5894 5895 5897 5899 5900 5902 5903 5904 5906 5907 5908
5809 5811 5814 5817 5819 5822 5825 5828 5832 5835 5838 5841 5844 5848 5851 5853 5856 5859 5862 5865 5868 5870 5872 5875 5877 5879 5881 5883 5885 5887 5889 5890 5892 5894 5895 5897 5898 5900 5901 5903 5904 5905 5906
5802 5804 5806 5809 5812 5815 5818 5821 5824 5828 5831 5834 5837 5841 5844 5847 5850 5853 5857 5860 5863 5866 5868 5871 5873 5876 5878 5881 5883 5885 5886 5888 5890 5892 5893 5895 5896 5898 5899 5901 5902 5903 5904
5795 5797 5799 5801 5804 5807 5810 5813 5816 5820 5823 5827 5830 5834 5837 5840 5844 5847 5850 5854 5857 5861 5864 5866 5869 5872 5874 5877 5879 5882 5884 5886 5887 5889 5891 5892 5894 5895 5897 5898 5899 5900 5901
5788 5790 5792 5794 5796 5799 5802 5806 5809 5812 5816 5819 5823 5826 5829 5834 5837 5840 5844 5847 5851 5854 5858 5861 5864 5868 5870 5873 5875 5878 5880 5882 5884 5886 5888 5889 5891 5893 5894 5895 5897 5898 5898
5783 5783 5785 5787 5789 5792 5795 5798 5801 5804 5808 5812 5815 5819 5822 5826 5829 5833 5837 5840 5844 5848 5852 5856 5859 5862 5865 5867 5871 5874 5876 5878 5881 5883 5884 5886 5888 5889 5891 5892 5893 5894 5895
5778 5778 5779 5780 5782 5784 5787 5790 5793 5796 5800 5804 5807 5811 5815 5818 5822 5826 5830 5833 5836 5841 5845 5849 5852 5856 5860 5863 5866 5868 5871 5874 5876 5878 5880 5882 5884 5885 5887 5888 5890 5891 5891
5774 5773 5774 5775 5776 5777 5779 5782 5785 5788 5791 5795 5799 5802 5806 5809 5813 5818 5822 5825 5829 5834 5838 5842 5845 5849 5853 5857 5860 5862 5865 5868 5871 5873 5875 5878 5879 5881 5883 5884 5885 5886 5887
5770 5769 5769 5769 5770 5771 5773 5775 5777 5780 5783 5787 5790 5793 5797 5801 5805 5809 5813 5817 5822 5826 5830 5835 5839 5843 5847 5851 5854 5856 5858 5862 5865 5868 5870 5872 5874 5876 5878 5879 5880 5881 5882
5767 5766 5765 5764 5765 5765 5766 5768 5769 5772 5775 5778 5781 5785 5788 5792 5796 5801 5805 5809 5814 5818 5822 5827 5831 5835 5839 5843 5846 5849 5852 5855 5858 5861 5864 5866 5868 5870 5872 5873 5875 5876 5877
5764 5762 5761 5760 5759 5759 5760 5761 5762 5765 5767 5769 5772 5776 5779 5783 5787 5791 5796 5801 5805 5810 5814 5819 5823 5827 5831 5835 5838 5842 5845 5848 5851 5854 5857 5859 5862 5864 5865 5867 5868 5869 5870
5761 5759 5757 5755 5755 5754 5754 5754 5756 5757 5759 5761 5764 5767 5771 5774 5778 5782 5787 5791 5797 5801 5807 5811 5815 5819 5822 5826 5831 5834 5837 5840 5843 5846 5849 5852 5854 5856 5858 5860 5861 5863 5864
5759 5756 5753 5752 5750 5749 5749 5749 5750 5750 5752 5754 5756 5759 5762 5765 5769 5773 5778 5783 5787 5792 5798 5803 5807 5811 5814 5818 5822 5826 5829 5832 5835 5838 5841 5844 5846 5848 5851 5852 5854 5855 5856
5757 5754 5751 5749 5747 5745 5744 5744 5744 5744 5745 5747 5749 5751 5754 5757 5761 5765 5770 5774 5779 5784 5789 5794 5798 5802 5806 5809 5813 5816 5820 5823 5827 5830 5833 5836 5838 5840 5842 5844 5846 5847 5848
5757 5753 5750 5747 5744 5742 5741 5740 5740 5740 5740 5741 5742 5744 5746 5749 5753 5757 5762 5766 5771 5775 5780 5785 5789 5793 5797 5801 5804 5808 5811 5815 5818 5821 5824 5827 5829 5831 5834 5835 5837 5838 5840
5757 5753 5750 5746 5743 5741 5739 5737 5736 5736 5736 5736 5736 5738 5739 5743 5746 5750 5754 5758 5762 5767 5771 5776 5780 5784 5788 5792 5795 5798 5802 5806 5809 5812 5815 5817 5820 5822 5825 5827 5828 5830 5831
5759 5755 5751 5747 5744 5741 5738 5736 5734 5733 5732 5732 5732 5733 5734 5736 5739 5743 5747 5751 5754 5759 5763 5767 5772 5776 5779 5782 5786 5790 5793 5796 5799 5802 5805 5808 5810 5813 5815 5818 5819 5821 5822
5762 5757 5753 5749 5745 5742 5739 5736 5734 5732 5730 5729 5729 5729 5730 5731 5734 5737 5740 5744 5747 5751 5755 5759 5763 5767 5771 5774 5778 5781 5783 5787 5790 5793 5796 5798 5801 5804 5806 5808 5810 5811 5813
5764 5760 5756 5751 5747 5743 5740 5737 5734 5731 5729 5727 5726 5726 5727 5727 5729 5731 5734 5737 5741 5744 5748 5751 5755 5759 5762 5766 5769 5772 5775 5778 5781 5785 5787 5789 5792 5794 5796 5798 5800 5802 5803
5767 5763 5758 5754 5750 5746 5742 5738 5735 5732 5729 5727 5726 5725 5725 5725 5726 5727 5729 5732 5735 5737 5741 5745 5748 5751 5755 5758 5761 5764 5767 5769 5772 5775 5777 5779 5782 5784 5787 5789 5790 5792 5793
5769 5765 5761 5757 5752 5748 5744 5740 5736 5733 5730 5727 5725 5724 5724 5723 5724 5725 5726 5728 5730 5732 5735 5738 5741 5744 5747 5750 5753 5756 5758 5761 5763 5766 5768 5771 5773 5775 5777 5779 5781 5783 5785
5771 5767 5763 5759 5755 5750 5746 5742 5738 5735 5731 5728 5726 5724 5723 5723 5722 5723 5723 5724 5726 5727 5729 5732 5735 5738 5740 5743 5745 5748 5751 5753 5755 5757 5760 5762 5764 5766 5769 5771 5773 5774 5776
5772 5768 5765 5761 5757 5753 5749 5744 5740 5736 5733 5730 5727 5725 5723 5722 5722 5721 5722 5722 5722 5723 5725 5727 5729 5732 5734 5736 5739 5741 5743 5745 5747 5749 5751 5753 5756 5758 5760 5763 5765 5767 5768